Lamar, CO

2:08 PM MST on December 06, 2019 (GMT -0700)
Lamar Municipal

Weather History for KLAA - October, 2019

Change the Weather History Date:

Friday, October 4, 2019

  Actual Average Record
Temperature  
Mean Temperature 66 °F 58 °F  
Max Temperature 81 °F 76 °F 99 °F (1922)
Min Temperature 50 °F 41 °F 25 °F (1999)
Degree Days  
Heating Degree Days 0 8  
Month to date heating degree days 20 28  
Since 1 July heating degree days 26 111  
Cooling Degree Days 1 1  
Month to date cooling degree days 1 4  
Year to date cooling degree days 1406 1116  
Growing Degree Days 15 (Base 50)    
Moisture  
Dew Point 50 °F    
Average Humidity 63    
Maximum Humidity 89    
Minimum Humidity 36    
Precipitation  
Precipitation T in 0.03 in 1.18 in (1946)
Month to date precipitation 0.01 0.11  
Year to date precipitation 7.76 13.73  
Sea Level Pressure  
Sea Level Pressure 29.97 in    
Wind  
Wind Speed 16 mph (South)    
Max Wind Speed 32 mph    
Max Gust Speed 44 mph    
Visibility 10 miles    
Events Rain    
T = Trace of Precipitation, MM = Missing Value Source: NWS Daily Summary

Daily Weather History Graph

Daily Weather History Graph

Search for Another Location

Airport or City:

Astronomy

Oct. 04, 2019 Rise Set
Actual Time 6:48 AM MDT 6:29 PM MDT
Civil Twilight 6:22 AM MDT 6:55 PM MDT
Nautical Twilight 5:52 AM MDT 7:26 PM MDT
Astronomical Twilight 5:21 AM MDT 7:56 PM MDT
Moon 1:17 PM MDT (10/4) 11:05 PM MDT (10/4)
Length of Visible Light 12h 32m
Length of Day
11h 40m
Waxing Crescent, 40% of the Moon is Illuminated
Oct 4
Waxing Crescent
Oct 5
First Quarter
Oct 13
Full
Oct 21
Last Quarter
Oct 27
New

Hourly Weather History & Observations

Time (MDT) Temp. Heat Index Dew Point Humidity Pressure Visibility Wind Dir Wind Speed Gust Speed Precip Events Conditions
12:53 AM 50.0 °F - 43.0 °F 77% 30.12 in 10.0 mi ESE 9.2 mph - N/A   Clear
1:35 AM 51.1 °F - 44.1 °F 77% 30.19 in 10.0 mi SE 9.2 mph - N/A   Mostly Cloudy
1:53 AM 51.1 °F - 45.0 °F 80% 30.11 in 10.0 mi ESE 8.1 mph - N/A   Overcast
2:12 AM 52.0 °F - 46.0 °F 80% 30.17 in 10.0 mi SE 13.8 mph - N/A   Overcast
2:53 AM 52.0 °F - 46.0 °F 80% 30.08 in 10.0 mi SE 13.8 mph - N/A   Overcast
3:53 AM 52.0 °F - 46.9 °F 83% 30.07 in 10.0 mi SE 9.2 mph - N/A   Overcast
4:48 AM 51.8 °F - 48.2 °F 88% 30.14 in 10.0 mi ESE 8.1 mph 18.4 mph N/A   Overcast
4:53 AM 52.0 °F - 48.0 °F 86% 30.06 in 10.0 mi Variable 6.9 mph 17.3 mph N/A   Overcast
5:46 AM 52.0 °F - 48.0 °F 86% 30.13 in 10.0 mi SSE 19.6 mph 32.2 mph N/A   Mostly Cloudy
5:53 AM 52.0 °F - 48.0 °F 86% 30.05 in 10.0 mi SSE 18.4 mph 29.9 mph N/A   Mostly Cloudy
6:53 AM 51.1 °F - 48.9 °F 92% 30.06 in 10.0 mi SSE 20.7 mph 31.1 mph N/A   Partly Cloudy
7:08 AM 52.0 °F - 48.9 °F 89% 30.13 in 10.0 mi SE 17.3 mph 28.8 mph N/A   Mostly Cloudy
7:36 AM 52.0 °F - 48.9 °F 89% 30.13 in 10.0 mi SSE 12.7 mph - N/A   Overcast
7:53 AM 53.1 °F - 48.9 °F 86% 30.06 in 10.0 mi SSE 9.2 mph - N/A   Overcast
8:30 AM 57.9 °F - 50.0 °F 75% 30.13 in 10.0 mi SE 12.7 mph - N/A   Scattered Clouds
8:53 AM 60.1 °F - 51.1 °F 72% 30.05 in 10.0 mi SSE 13.8 mph - N/A   Scattered Clouds
9:53 AM 68.0 °F - 54.0 °F 61% 30.00 in 10.0 mi South 19.6 mph 28.8 mph N/A   Partly Cloudy
10:53 AM 73.9 °F - 55.0 °F 52% 29.96 in 10.0 mi SSW 24.2 mph 32.2 mph N/A   Clear
11:53 AM 73.0 °F - 54.0 °F 51% 29.94 in 10.0 mi SSW 21.9 mph 32.2 mph N/A   Mostly Cloudy
12:48 PM 64.4 °F - 48.2 °F 56% 30.02 in 10.0 mi WNW 10.4 mph 21.9 mph 0.00 in Rain Light Rain
12:53 PM 66.9 °F - 50.0 °F 54% 29.93 in 10.0 mi WNW 9.2 mph - 0.00 in   Overcast
1:53 PM 68.0 °F - 48.9 °F 50% 29.86 in 10.0 mi Variable 3.5 mph - N/A   Mostly Cloudy
2:53 PM 80.1 °F 79.9 °F 53.1 °F 39% 29.80 in 10.0 mi South 17.3 mph 26.5 mph 0.00 in   Clear
3:53 PM 80.1 °F - 52.0 °F 38% 29.77 in 10.0 mi SSW 24.2 mph 33.4 mph N/A   Clear
4:53 PM 75.9 °F - 54.0 °F 46% 29.77 in 10.0 mi SSW 26.5 mph 39.1 mph N/A   Clear
5:53 PM 72.0 °F - 55.0 °F 55% 29.76 in 10.0 mi SSW 27.6 mph 42.6 mph N/A   Clear
6:53 PM 68.0 °F - 55.9 °F 65% 29.75 in 10.0 mi South 29.9 mph 42.6 mph N/A   Clear
7:53 PM 66.9 °F - 55.9 °F 68% 29.75 in 10.0 mi South 23.0 mph 33.4 mph N/A   Clear
8:53 PM 66.0 °F - 54.0 °F 65% 29.75 in 10.0 mi SSW 18.4 mph 27.6 mph N/A   Clear
9:53 PM 64.9 °F - 52.0 °F 63% 29.72 in 10.0 mi South 16.1 mph - N/A   Clear
10:53 PM 61.0 °F - 50.0 °F 67% 29.73 in 10.0 mi SSW 11.5 mph - N/A   Clear
11:53 PM 59.0 °F - 48.9 °F 69% 29.75 in 10.0 mi SSW 5.8 mph - N/A   Clear